Volver al catálogo

Sitro-AIS-61

ActivoComunicacionesSSO
NORAD 67297·PAYLOAD·🇷🇺 Russia

Lanzado Dec 28, 2025 desde Vostochny Cosmodrome

Loading…

Próximos Pases (próximas 24 horas)

TLE

ActualizadoSource: Space-Track

Época: Sep 14, 2026, 04:09 UTC

1 67297U 25313BB  26257.17298202  .00007287  00000-0  27962-3 0  9991
2 67297  97.3872 331.3257 0009082  52.4925 307.7138 15.26738216 39551

Sigue Sitro-AIS-61 en tiempo real con AllMySat

Download on the App Store